Time,TemperatureF,DewpointF,PressureIn,WindDirection,WindDirectionDegrees,WindSpeedMPH,WindSpeedGustMPH,Humidity,HourlyPrecipIn,Conditions,Clouds,dailyrainin,SolarRadiationWatts/m^2,SoftwareType,DateUTC
2013-01-24 07:42:00,-1.3,-6.2,30.82,WNW,301,1.0,1.0,79,0.00,,,0.00,21,Wunderground v.1.15,2013-01-24 13:42:00,
2013-01-24 07:47:00,-1.3,-6.2,30.82,WNW,298,2.0,6.0,79,0.00,,,0.00,26,Wunderground v.1.15,2013-01-24 13:47:00,
2013-01-24 07:52:00,-1.2,-6.1,30.82,WNW,298,1.0,2.0,79,0.00,,,0.00,33,Wunderground v.1.15,2013-01-24 13:52:00,
2013-01-24 07:58:00,-1.2,-6.1,30.82,WNW,296,1.0,6.0,79,0.00,,,0.00,44,Wunderground v.1.15,2013-01-24 13:58:00,
2013-01-24 08:03:00,-1.1,-6.0,30.82,WNW,296,2.0,4.0,79,0.00,,,0.00,54,Wunderground v.1.15,2013-01-24 14:03:00,
2013-01-24 08:08:00,-0.9,-5.8,30.82,WNW,296,0.0,4.0,79,0.00,,,0.00,63,Wunderground v.1.15,2013-01-24 14:08:00,
2013-01-24 08:13:00,-0.8,-5.7,30.83,WNW,296,1.0,4.0,79,0.00,,,0.00,77,Wunderground v.1.15,2013-01-24 14:13:00,
2013-01-24 08:17:00,-0.7,-5.9,30.83,WNW,296,1.0,6.0,78,0.00,,,0.00,95,Wunderground v.1.15,2013-01-24 14:17:00,
2013-01-24 08:22:00,-0.5,-5.7,30.83,WNW,296,0.0,1.0,78,0.00,,,0.00,111,Wunderground v.1.15,2013-01-24 14:22:00,
2013-01-24 08:27:00,-0.3,-5.5,30.84,WNW,296,2.0,7.0,78,0.00,,,0.00,116,Wunderground v.1.15,2013-01-24 14:27:00,
2013-01-24 08:33:00,-0.1,-5.3,30.84,WNW,296,1.0,4.0,78,0.00,,,0.00,116,Wunderground v.1.15,2013-01-24 14:33:00,
2013-01-24 08:38:00,0.1,-5.1,30.84,WNW,296,1.0,4.0,78,0.00,,,0.00,114,Wunderground v.1.15,2013-01-24 14:38:00,
2013-01-24 08:43:00,0.4,-4.8,30.84,WNW,296,0.0,4.0,78,0.00,,,0.00,137,Wunderground v.1.15,2013-01-24 14:43:00,
2013-01-24 08:48:00,0.6,-4.9,30.84,WNW,296,0.0,4.0,77,0.00,,,0.00,162,Wunderground v.1.15,2013-01-24 14:48:00,
2013-01-24 08:53:00,0.9,-4.6,30.84,NW,315,0.0,7.0,77,0.00,,,0.00,172,Wunderground v.1.15,2013-01-24 14:53:00,
2013-01-24 08:58:00,1.3,-4.5,30.84,NW,317,6.0,7.0,76,0.00,,,0.00,169,Wunderground v.1.15,2013-01-24 14:58:00,
2013-01-24 09:03:00,1.5,-4.6,30.84,NW,322,2.0,7.0,75,0.00,,,0.00,162,Wunderground v.1.15,2013-01-24 15:03:00,
2013-01-24 09:08:00,1.9,-4.2,30.84,NW,325,1.0,7.0,75,0.00,,,0.00,163,Wunderground v.1.15,2013-01-24 15:08:00,
2013-01-24 09:13:00,2.3,-3.8,30.84,NW,325,0.0,2.0,75,0.00,,,0.00,169,Wunderground v.1.15,2013-01-24 15:13:00,
2013-01-24 09:18:00,2.6,-3.8,30.85,NW,325,0.0,4.0,74,0.00,,,0.00,186,Wunderground v.1.15,2013-01-24 15:18:00,
2013-01-24 09:23:00,2.9,-3.5,30.84,NW,325,0.0,4.0,74,0.00,,,0.00,211,Wunderground v.1.15,2013-01-24 15:23:00,
2013-01-24 09:28:00,3.4,-3.3,30.84,NW,325,4.0,5.0,73,0.00,,,0.00,237,Wunderground v.1.15,2013-01-24 15:28:00,
2013-01-24 09:33:00,3.7,-3.3,30.84,NNW,330,2.0,7.0,72,0.00,,,0.00,246,Wunderground v.1.15,2013-01-24 15:33:00,
2013-01-24 09:38:00,4.1,-3.2,30.83,NNW,346,0.0,7.0,71,0.00,,,0.00,253,Wunderground v.1.15,2013-01-24 15:38:00,
2013-01-24 09:43:00,4.5,-3.1,30.83,North,5,2.0,6.0,70,0.00,,,0.00,285,Wunderground v.1.15,2013-01-24 15:43:00,
2013-01-24 09:48:00,4.9,-3.1,30.83,NNW,345,0.0,6.0,69,0.00,,,0.00,311,Wunderground v.1.15,2013-01-24 15:48:00,
2013-01-24 09:53:00,5.0,-3.3,30.83,NW,325,6.0,7.0,68,0.00,,,0.00,330,Wunderground v.1.15,2013-01-24 15:53:00,
2013-01-24 09:58:00,5.1,-3.2,30.83,NNW,333,0.0,8.0,68,0.00,,,0.00,359,Wunderground v.1.15,2013-01-24 15:58:00,
2013-01-24 10:03:00,5.8,-2.2,30.83,NNE,21,2.0,9.0,69,0.00,,,0.00,408,Wunderground v.1.15,2013-01-24 16:03:00,
2013-01-24 10:08:00,6.6,-1.4,30.83,NNE,26,3.0,9.0,69,0.00,,,0.00,410,Wunderground v.1.15,2013-01-24 16:08:00,
2013-01-24 10:13:00,7.3,-1.1,30.83,NNE,28,1.0,8.0,68,0.00,,,0.00,413,Wunderground v.1.15,2013-01-24 16:13:00,
2013-01-24 10:18:00,7.6,-1.1,30.83,NNW,348,2.0,8.0,67,0.00,,,0.00,404,Wunderground v.1.15,2013-01-24 16:18:00,
2013-01-24 10:23:00,7.8,-0.9,30.83,NNE,22,2.0,7.0,67,0.00,,,0.00,371,Wunderground v.1.15,2013-01-24 16:23:00,
2013-01-24 10:28:00,8.0,-1.0,30.83,NNE,24,2.0,8.0,66,0.00,,,0.00,355,Wunderground v.1.15,2013-01-24 16:28:00,
2013-01-24 10:33:00,8.5,-0.5,30.83,NNE,24,1.0,4.0,66,0.00,,,0.00,343,Wunderground v.1.15,2013-01-24 16:33:00,
2013-01-24 10:38:00,8.7,-0.7,30.83,NNE,22,6.0,7.0,65,0.00,,,0.00,346,Wunderground v.1.15,2013-01-24 16:38:00,
2013-01-24 10:43:00,8.7,-1.0,30.83,NNE,25,1.0,5.0,64,0.00,,,0.00,339,Wunderground v.1.15,2013-01-24 16:43:00,
2013-01-24 10:48:00,8.4,-1.6,30.83,NNE,18,3.0,6.0,63,0.00,,,0.00,357,Wunderground v.1.15,2013-01-24 16:48:00,
2013-01-24 10:53:00,8.3,-1.4,30.83,NNE,20,3.0,3.0,64,0.00,,,0.00,338,Wunderground v.1.15,2013-01-24 16:53:00,
2013-01-24 10:58:00,8.5,-1.2,30.82,NNE,17,2.0,5.0,64,0.00,,,0.00,313,Wunderground v.1.15,2013-01-24 16:58:00,
2013-01-24 11:03:00,8.6,-1.4,30.82,NNE,15,0.0,4.0,63,0.00,,,0.00,294,Wunderground v.1.15,2013-01-24 17:03:00,
2013-01-24 11:08:00,8.6,-1.1,30.82,NNE,15,0.0,4.0,64,0.00,,,0.00,299,Wunderground v.1.15,2013-01-24 17:08:00,
2013-01-24 11:13:00,8.9,-0.5,30.82,NNE,15,1.0,3.0,65,0.00,,,0.00,309,Wunderground v.1.15,2013-01-24 17:13:00,
2013-01-24 11:18:00,9.0,-0.7,30.82,North,10,3.0,5.0,64,0.00,,,0.00,318,Wunderground v.1.15,2013-01-24 17:18:00,
2013-01-24 11:23:00,9.1,-0.3,30.81,NNE,15,3.0,6.0,65,0.00,,,0.00,330,Wunderground v.1.15,2013-01-24 17:23:00,
2013-01-24 11:28:00,9.2,-0.5,30.81,NNE,16,2.0,6.0,64,0.00,,,0.00,359,Wunderground v.1.15,2013-01-24 17:28:00,
2013-01-24 11:33:00,9.2,-0.9,30.82,NNE,16,0.0,3.0,63,0.00,,,0.00,334,Wunderground v.1.15,2013-01-24 17:33:00,
2013-01-24 11:38:00,9.3,-0.8,30.81,NNE,15,3.0,5.0,63,0.00,,,0.00,325,Wunderground v.1.15,2013-01-24 17:38:00,
2013-01-24 11:43:00,9.6,-0.1,30.81,NNE,15,2.0,3.0,64,0.00,,,0.00,329,Wunderground v.1.15,2013-01-24 17:43:00,
2013-01-24 11:48:00,9.7,0.0,30.81,NNE,15,2.0,4.0,64,0.00,,,0.00,338,Wunderground v.1.15,2013-01-24 17:48:00,
2013-01-24 11:53:00,9.8,-0.3,30.81,NNE,15,0.0,1.0,63,0.00,,,0.00,366,Wunderground v.1.15,2013-01-24 17:53:00,
2013-01-24 11:58:00,9.9,0.1,30.81,NNE,15,2.0,6.0,64,0.00,,,0.00,373,Wunderground v.1.15,2013-01-24 17:58:00,
2013-01-24 12:03:00,10.2,0.1,30.80,NNE,15,2.0,4.0,63,0.00,,,0.00,359,Wunderground v.1.15,2013-01-24 18:03:00,
2013-01-24 12:08:00,9.9,-0.5,30.80,NNE,16,0.0,5.0,62,0.00,,,0.00,348,Wunderground v.1.15,2013-01-24 18:08:00,
2013-01-24 12:13:00,9.8,0.0,30.80,NNE,16,2.0,4.0,64,0.00,,,0.00,360,Wunderground v.1.15,2013-01-24 18:13:00,
2013-01-24 12:18:00,9.5,-0.6,30.80,North,9,2.0,4.0,63,0.00,,,0.00,364,Wunderground v.1.15,2013-01-24 18:18:00,
2013-01-24 12:23:00,9.8,0.4,30.79,North,9,1.0,2.0,65,0.00,,,0.00,376,Wunderground v.1.15,2013-01-24 18:23:00,
2013-01-24 12:28:00,10.3,0.9,30.79,North,9,2.0,4.0,65,0.00,,,0.00,373,Wunderground v.1.15,2013-01-24 18:28:00,
2013-01-24 12:33:00,10.8,1.0,30.78,North,10,0.0,3.0,64,0.00,,,0.00,376,Wunderground v.1.15,2013-01-24 18:33:00,
2013-01-24 12:38:00,10.9,0.8,30.78,North,355,1.0,6.0,63,0.00,,,0.00,362,Wunderground v.1.15,2013-01-24 18:38:00,
2013-01-24 12:43:00,10.9,0.8,30.77,North,360,1.0,4.0,63,0.00,,,0.00,364,Wunderground v.1.15,2013-01-24 18:43:00,
2013-01-24 12:48:00,11.2,1.0,30.77,North,360,0.0,4.0,63,0.00,,,0.00,360,Wunderground v.1.15,2013-01-24 18:48:00,
2013-01-24 12:53:00,11.6,1.8,30.77,North,360,1.0,4.0,64,0.00,,,0.00,348,Wunderground v.1.15,2013-01-24 18:53:00,
2013-01-24 12:58:00,11.7,1.2,30.77,North,5,1.0,4.0,62,0.00,,,0.00,373,Wunderground v.1.15,2013-01-24 18:58:00,
2013-01-24 13:03:00,11.5,1.3,30.77,North,5,0.0,2.0,63,0.00,,,0.00,359,Wunderground v.1.15,2013-01-24 19:03:00,
2013-01-24 13:08:00,11.8,2.0,30.77,North,5,2.0,4.0,64,0.00,,,0.00,334,Wunderground v.1.15,2013-01-24 19:08:00,
2013-01-24 13:13:00,11.8,1.6,30.77,North,5,2.0,3.0,63,0.00,,,0.00,323,Wunderground v.1.15,2013-01-24 19:13:00,
2013-01-24 13:18:00,12.1,1.6,30.76,North,5,0.0,3.0,62,0.00,,,0.00,313,Wunderground v.1.15,2013-01-24 19:18:00,
2013-01-24 13:23:00,11.7,1.2,30.76,North,5,1.0,3.0,62,0.00,,,0.00,288,Wunderground v.1.15,2013-01-24 19:23:00,
2013-01-24 13:28:00,11.4,0.9,30.76,North,5,0.0,3.0,62,0.00,,,0.00,271,Wunderground v.1.15,2013-01-24 19:28:00,
2013-01-24 13:33:00,11.6,1.4,30.76,North,5,1.0,1.0,63,0.00,,,0.00,257,Wunderground v.1.15,2013-01-24 19:33:00,
2013-01-24 13:38:00,11.8,2.0,30.76,North,5,0.0,2.0,64,0.00,,,0.00,246,Wunderground v.1.15,2013-01-24 19:38:00,
2013-01-24 13:43:00,11.5,1.0,30.76,North,355,4.0,6.0,62,0.00,,,0.00,250,Wunderground v.1.15,2013-01-24 19:43:00,
2013-01-24 13:48:00,11.2,0.7,30.76,North,355,1.0,6.0,62,0.00,,,0.00,253,Wunderground v.1.15,2013-01-24 19:48:00,
2013-01-24 13:53:00,10.9,0.8,30.76,North,355,2.0,5.0,63,0.00,,,0.00,241,Wunderground v.1.15,2013-01-24 19:53:00,
2013-01-24 13:58:00,10.9,0.8,30.76,North,355,0.0,5.0,63,0.00,,,0.00,227,Wunderground v.1.15,2013-01-24 19:58:00,
2013-01-24 14:03:00,11.2,1.7,30.75,North,355,1.0,2.0,65,0.00,,,0.00,220,Wunderground v.1.15,2013-01-24 20:03:00,
2013-01-24 14:08:00,11.5,1.3,30.75,North,355,1.0,4.0,63,0.00,,,0.00,211,Wunderground v.1.15,2013-01-24 20:08:00,
2013-01-24 14:13:00,11.7,1.9,30.75,North,355,2.0,2.0,64,0.00,,,0.00,206,Wunderground v.1.15,2013-01-24 20:13:00,
2013-01-24 14:18:00,11.9,1.4,30.74,North,355,0.0,5.0,62,0.00,,,0.00,202,Wunderground v.1.15,2013-01-24 20:18:00,
2013-01-24 14:23:00,11.8,1.3,30.75,North,355,2.0,5.0,62,0.00,,,0.00,193,Wunderground v.1.15,2013-01-24 20:23:00,
2013-01-24 14:28:00,11.7,1.2,30.74,North,355,1.0,5.0,62,0.00,,,0.00,183,Wunderground v.1.15,2013-01-24 20:28:00,
2013-01-24 14:33:00,11.6,0.7,30.74,North,355,0.0,2.0,61,0.00,,,0.00,174,Wunderground v.1.15,2013-01-24 20:33:00,
2013-01-24 14:38:00,11.6,1.1,30.74,North,355,0.0,5.0,62,0.00,,,0.00,169,Wunderground v.1.15,2013-01-24 20:38:00,
2013-01-24 14:43:00,11.6,0.7,30.74,North,355,0.0,4.0,61,0.00,,,0.00,151,Wunderground v.1.15,2013-01-24 20:43:00,
2013-01-24 14:48:00,11.8,1.6,30.74,North,355,0.0,4.0,63,0.00,,,0.00,142,Wunderground v.1.15,2013-01-24 20:48:00,
2013-01-24 14:53:00,12.0,1.5,30.74,North,355,1.0,5.0,62,0.00,,,0.00,134,Wunderground v.1.15,2013-01-24 20:53:00,
2013-01-24 14:58:00,12.2,1.7,30.73,North,355,2.0,5.0,62,0.00,,,0.00,125,Wunderground v.1.15,2013-01-24 20:58:00,
2013-01-24 15:03:00,12.5,1.9,30.74,North,355,4.0,4.0,62,0.00,,,0.00,121,Wunderground v.1.15,2013-01-24 21:03:00,
2013-01-24 15:08:00,12.7,2.1,30.74,North,355,1.0,4.0,62,0.00,,,0.00,111,Wunderground v.1.15,2013-01-24 21:08:00,
2013-01-24 15:13:00,12.6,1.7,30.74,North,355,2.0,4.0,61,0.00,,,0.00,100,Wunderground v.1.15,2013-01-24 21:13:00,
2013-01-24 15:18:00,12.5,1.2,30.74,North,355,2.0,4.0,60,0.00,,,0.00,95,Wunderground v.1.15,2013-01-24 21:18:00,
2013-01-24 15:23:00,12.3,1.0,30.74,North,355,0.0,1.0,60,0.00,,,0.00,93,Wunderground v.1.15,2013-01-24 21:23:00,
2013-01-24 15:28:00,12.2,1.3,30.74,NNE,13,0.0,4.0,61,0.00,,,0.00,86,Wunderground v.1.15,2013-01-24 21:28:00,
2013-01-24 15:33:00,12.1,0.9,30.73,NNE,13,0.0,1.0,60,0.00,,,0.00,77,Wunderground v.1.15,2013-01-24 21:33:00,
2013-01-24 15:38:00,12.1,1.2,30.72,NNE,13,0.0,2.0,61,0.00,,,0.00,72,Wunderground v.1.15,2013-01-24 21:38:00,
2013-01-24 15:43:00,12.2,1.7,30.73,NNE,13,0.0,2.0,62,0.00,,,0.00,69,Wunderground v.1.15,2013-01-24 21:43:00,
2013-01-24 15:48:00,12.3,2.1,30.72,NNE,13,0.0,2.0,63,0.00,,,0.00,58,Wunderground v.1.15,2013-01-24 21:48:00,
2013-01-24 15:53:00,12.4,2.2,30.72,NNE,13,0.0,1.0,63,0.00,,,0.00,53,Wunderground v.1.15,2013-01-24 21:53:00,
2013-01-24 15:58:00,12.5,2.6,30.72,NNE,13,0.0,2.0,64,0.00,,,0.00,47,Wunderground v.1.15,2013-01-24 21:58:00,
2013-01-24 16:03:00,12.5,2.6,30.72,NNE,19,1.0,4.0,64,0.00,,,0.00,42,Wunderground v.1.15,2013-01-24 22:03:00,
2013-01-24 16:08:00,12.3,2.1,30.72,NNE,21,0.0,4.0,63,0.00,,,0.00,40,Wunderground v.1.15,2013-01-24 22:08:00,
2013-01-24 16:13:00,12.1,1.9,30.72,NNE,21,0.0,3.0,63,0.00,,,0.00,33,Wunderground v.1.15,2013-01-24 22:13:00,
2013-01-24 16:18:00,12.0,2.1,30.72,NNE,23,0.0,4.0,64,0.00,,,0.00,28,Wunderground v.1.15,2013-01-24 22:18:00,
2013-01-24 16:23:00,12.0,1.8,30.72,NNE,23,0.0,1.0,63,0.00,,,0.00,21,Wunderground v.1.15,2013-01-24 22:23:00,
2013-01-24 16:28:00,11.9,1.4,30.72,NNE,23,1.0,2.0,62,0.00,,,0.00,18,Wunderground v.1.15,2013-01-24 22:28:00,
2013-01-24 16:33:00,11.8,1.3,30.71,NNE,23,0.0,2.0,62,0.00,,,0.00,12,Wunderground v.1.15,2013-01-24 22:33:00,
2013-01-24 16:38:00,11.7,1.5,30.71,NNE,23,2.0,3.0,63,0.00,,,0.00,9,Wunderground v.1.15,2013-01-24 22:38:00,
2013-01-24 16:43:00,11.7,2.2,30.71,NNE,23,1.0,3.0,65,0.00,,,0.00,7,Wunderground v.1.15,2013-01-24 22:43:00,
2013-01-24 16:48:00,11.6,1.8,30.71,NNE,23,0.0,3.0,64,0.00,,,0.00,0,Wunderground v.1.15,2013-01-24 22:48:00,
2013-01-24 16:53:00,11.6,2.4,30.71,NNE,23,0.0,2.0,66,0.00,,,0.00,0,Wunderground v.1.15,2013-01-24 22:53:00,
2013-01-24 16:58:00,11.6,2.4,30.71,NNE,23,0.0,2.0,66,0.00,,,0.00,0,Wunderground v.1.15,2013-01-24 22:58:00,
2013-01-24 17:03:00,11.6,2.4,30.71,NNE,23,0.0,1.0,66,0.00,,,0.00,0,Wunderground v.1.15,2013-01-24 23:03:00,
2013-01-24 17:08:00,11.6,2.4,30.70,NNE,23,0.0,1.0,66,0.00,,,0.00,0,Wunderground v.1.15,2013-01-24 23:08:00,
2013-01-24 17:13:00,11.6,2.8,30.70,NNE,23,0.0,1.0,67,0.00,,,0.00,0,Wunderground v.1.15,2013-01-24 23:13:00,
2013-01-24 17:18:00,11.6,3.1,30.70,NNE,23,2.0,2.0,68,0.00,,,0.00,0,Wunderground v.1.15,2013-01-24 23:18:00,
2013-01-24 17:23:00,11.6,3.1,30.70,NNE,23,0.0,2.0,68,0.00,,,0.00,0,Wunderground v.1.15,2013-01-24 23:23:00,
2013-01-24 17:28:00,11.6,3.4,30.70,NNE,23,0.0,2.0,69,0.00,,,0.00,0,Wunderground v.1.15,2013-01-24 23:28:00,
2013-01-24 17:33:00,11.6,3.4,30.69,NNE,23,0.0,1.0,69,0.00,,,0.00,0,Wunderground v.1.15,2013-01-24 23:33:00,
2013-01-24 17:38:00,11.6,3.4,30.68,NNE,23,0.0,2.0,69,0.00,,,0.00,0,Wunderground v.1.15,2013-01-24 23:38:00,
2013-01-24 17:43:00,11.5,3.3,30.69,NNE,23,0.0,2.0,69,0.00,,,0.00,0,Wunderground v.1.15,2013-01-24 23:43:00,
2013-01-24 17:48:00,11.5,3.6,30.69,NNE,23,0.0,2.0,70,0.00,,,0.00,0,Wunderground v.1.15,2013-01-24 23:48:00,
2013-01-24 17:53:00,11.5,3.3,30.69,NNE,23,0.0,2.0,69,0.00,,,0.00,0,Wunderground v.1.15,2013-01-24 23:53:00,
2013-01-24 17:58:00,11.5,3.3,30.68,NNE,23,0.0,3.0,69,0.00,,,0.00,0,Wunderground v.1.15,2013-01-24 23:58:00,
2013-01-24 18:03:00,11.5,3.6,30.68,NNE,23,0.0,1.0,70,0.00,,,0.00,0,Wunderground v.1.15,2013-01-25 00:03:00,
2013-01-24 18:08:00,11.4,3.5,30.67,NNE,23,0.0,2.0,70,0.00,,,0.00,0,Wunderground v.1.15,2013-01-25 00:08:00,
2013-01-24 18:13:00,11.4,3.5,30.66,NNE,23,2.0,3.0,70,0.00,,,0.00,0,Wunderground v.1.15,2013-01-25 00:13:00,
2013-01-24 18:18:00,11.4,3.5,30.66,NNE,25,3.0,3.0,70,0.00,,,0.00,0,Wunderground v.1.15,2013-01-25 00:18:00,
2013-01-24 18:23:00,11.4,3.8,30.65,NNE,26,1.0,3.0,71,0.00,,,0.00,0,Wunderground v.1.15,2013-01-25 00:23:00,
2013-01-24 18:28:00,11.4,3.5,30.65,NNE,32,1.0,4.0,70,0.00,,,0.00,0,Wunderground v.1.15,2013-01-25 00:28:00,
2013-01-24 18:33:00,11.4,3.2,30.66,NNE,33,1.0,3.0,69,0.00,,,0.00,0,Wunderground v.1.15,2013-01-25 00:33:00,
2013-01-24 18:38:00,11.4,3.2,30.65,NNE,33,0.0,3.0,69,0.00,,,0.00,0,Wunderground v.1.15,2013-01-25 00:38:00,
2013-01-24 18:43:00,11.4,3.5,30.64,NE,34,3.0,4.0,70,0.00,,,0.00,0,Wunderground v.1.15,2013-01-25 00:43:00,
2013-01-24 18:48:00,11.3,3.4,30.65,NE,36,0.0,4.0,70,0.00,,,0.00,0,Wunderground v.1.15,2013-01-25 00:48:00,
2013-01-24 18:53:00,11.3,3.4,30.64,NE,36,1.0,3.0,70,0.00,,,0.00,0,Wunderground v.1.15,2013-01-25 00:53:00,
2013-01-24 18:59:00,11.3,3.7,30.64,NE,38,1.0,3.0,71,0.00,,,0.00,0,Wunderground v.1.15,2013-01-25 00:59:00,
2013-01-24 19:04:00,11.3,4.0,30.63,NE,46,1.0,5.0,72,0.00,,,0.00,0,Wunderground v.1.15,2013-01-25 01:04:00,
2013-01-24 19:09:00,11.2,3.9,30.63,NE,49,3.0,5.0,72,0.00,,,0.00,0,Wunderground v.1.15,2013-01-25 01:09:00,
2013-01-24 19:14:00,11.1,3.8,30.63,NE,50,3.0,4.0,72,0.00,,,0.00,0,Wunderground v.1.15,2013-01-25 01:14:00,
2013-01-24 19:19:00,11.1,4.1,30.63,ENE,57,2.0,5.0,73,0.00,,,0.00,0,Wunderground v.1.15,2013-01-25 01:19:00,
2013-01-24 19:24:00,11.0,4.0,30.63,ENE,57,1.0,4.0,73,0.00,,,0.00,0,Wunderground v.1.15,2013-01-25 01:24:00,
2013-01-24 19:29:00,10.9,3.9,30.63,ENE,61,4.0,5.0,73,0.00,,,0.00,0,Wunderground v.1.15,2013-01-25 01:29:00,
2013-01-24 19:34:00,10.9,4.2,30.63,ENE,61,0.0,3.0,74,0.00,,,0.00,0,Wunderground v.1.15,2013-01-25 01:34:00,
2013-01-24 19:39:00,11.0,4.6,30.63,ENE,61,1.0,3.0,75,0.00,,,0.00,0,Wunderground v.1.15,2013-01-25 01:39:00,
2013-01-24 19:44:00,11.0,4.3,30.62,ENE,63,3.0,6.0,74,0.00,,,0.00,0,Wunderground v.1.15,2013-01-25 01:44:00,
2013-01-24 19:49:00,11.0,4.3,30.62,ENE,63,4.0,6.0,74,0.00,,,0.00,0,Wunderground v.1.15,2013-01-25 01:49:00,
2013-01-24 19:54:00,11.0,3.7,30.62,ENE,63,0.0,3.0,72,0.00,,,0.00,0,Wunderground v.1.15,2013-01-25 01:54:00,
2013-01-24 19:59:00,11.1,3.8,30.62,ENE,63,2.0,5.0,72,0.00,,,0.00,0,Wunderground v.1.15,2013-01-25 01:59:00,
2013-01-24 20:04:00,11.1,3.8,30.62,ENE,63,1.0,3.0,72,0.00,,,0.00,0,Wunderground v.1.15,2013-01-25 02:04:00,
2013-01-24 20:09:00,11.2,4.2,30.63,ENE,63,0.0,3.0,73,0.00,,,0.00,0,Wunderground v.1.15,2013-01-25 02:09:00,
2013-01-24 20:14:00,11.3,4.3,30.63,ENE,63,1.0,2.0,73,0.00,,,0.00,0,Wunderground v.1.15,2013-01-25 02:14:00,
2013-01-24 20:19:00,11.3,4.0,30.63,ENE,63,0.0,2.0,72,0.00,,,0.00,0,Wunderground v.1.15,2013-01-25 02:19:00,
2013-01-24 20:24:00,11.4,4.4,30.63,ENE,63,0.0,1.0,73,0.00,,,0.00,0,Wunderground v.1.15,2013-01-25 02:24:00,
2013-01-24 20:29:00,11.4,4.1,30.63,ENE,63,0.0,1.0,72,0.00,,,0.00,0,Wunderground v.1.15,2013-01-25 02:29:00,
2013-01-24 20:34:00,11.5,4.2,30.62,ENE,63,1.0,2.0,72,0.00,,,0.00,0,Wunderground v.1.15,2013-01-25 02:34:00,
2013-01-24 20:39:00,11.6,4.3,30.61,ENE,63,1.0,2.0,72,0.00,,,0.00,0,Wunderground v.1.15,2013-01-25 02:39:00,
2013-01-24 20:44:00,11.6,4.3,30.61,ENE,63,0.0,1.0,72,0.00,,,0.00,0,Wunderground v.1.15,2013-01-25 02:44:00,
2013-01-24 20:49:00,11.6,4.3,30.60,ENE,63,0.0,1.0,72,0.00,,,0.00,0,Wunderground v.1.15,2013-01-25 02:49:00,
2013-01-24 20:54:00,11.6,4.3,30.60,ENE,63,1.0,2.0,72,0.00,,,0.00,0,Wunderground v.1.15,2013-01-25 02:54:00,
2013-01-24 20:59:00,11.6,4.3,30.60,ENE,63,0.0,2.0,72,0.00,,,0.00,0,Wunderground v.1.15,2013-01-25 02:59:00,
2013-01-24 21:04:00,11.7,4.7,30.60,ENE,63,0.0,1.0,73,0.00,,,0.00,0,Wunderground v.1.15,2013-01-25 03:04:00,
2013-01-24 21:09:00,11.8,4.8,30.59,ENE,63,0.0,2.0,73,0.00,,,0.00,0,Wunderground v.1.15,2013-01-25 03:09:00,
2013-01-24 21:14:00,11.9,4.9,30.58,ENE,63,2.0,2.0,73,0.00,,,0.00,0,Wunderground v.1.15,2013-01-25 03:14:00,
2013-01-24 21:19:00,11.9,5.2,30.57,ENE,63,0.0,3.0,74,0.00,,,0.00,0,Wunderground v.1.15,2013-01-25 03:19:00,
2013-01-24 21:24:00,12.0,5.3,30.57,ENE,63,0.0,1.0,74,0.00,,,0.00,0,Wunderground v.1.15,2013-01-25 03:24:00,
2013-01-24 21:29:00,12.1,5.4,30.57,ENE,63,0.0,4.0,74,0.00,,,0.00,0,Wunderground v.1.15,2013-01-25 03:29:00,
2013-01-24 21:34:00,12.1,5.4,30.58,ENE,63,0.0,3.0,74,0.00,,,0.00,0,Wunderground v.1.15,2013-01-25 03:34:00,
2013-01-24 21:39:00,12.2,5.5,30.58,ENE,63,0.0,3.0,74,0.00,,,0.00,0,Wunderground v.1.15,2013-01-25 03:39:00,
2013-01-24 21:44:00,12.2,6.1,30.58,ENE,65,2.0,6.0,76,0.00,,,0.00,0,Wunderground v.1.15,2013-01-25 03:44:00,
2013-01-24 21:49:00,12.3,6.5,30.58,ENE,68,0.0,6.0,77,0.00,,,0.00,0,Wunderground v.1.15,2013-01-25 03:49:00,
2013-01-24 21:54:00,12.3,6.7,30.58,ENE,68,2.0,2.0,78,0.00,,,0.00,0,Wunderground v.1.15,2013-01-25 03:54:00,
2013-01-24 21:59:00,12.3,7.0,30.58,ENE,68,0.0,3.0,79,0.00,,,0.00,0,Wunderground v.1.15,2013-01-25 03:59:00,
2013-01-24 22:04:00,12.3,7.3,30.58,ENE,68,0.0,2.0,80,0.00,,,0.00,0,Wunderground v.1.15,2013-01-25 04:04:00,
2013-01-24 22:09:00,12.3,7.6,30.58,ENE,68,0.0,3.0,81,0.00,,,0.00,0,Wunderground v.1.15,2013-01-25 04:09:00,
2013-01-24 22:14:00,12.3,7.9,30.57,ENE,68,0.0,1.0,82,0.00,,,0.00,0,Wunderground v.1.15,2013-01-25 04:14:00,
2013-01-24 22:19:00,12.3,8.1,30.57,ENE,68,0.0,2.0,83,0.00,,,0.00,0,Wunderground v.1.15,2013-01-25 04:19:00,
2013-01-24 22:24:00,12.3,8.4,30.57,ENE,68,0.0,1.0,84,0.00,,,0.00,0,Wunderground v.1.15,2013-01-25 04:24:00,
2013-01-24 22:29:00,12.4,8.5,30.56,ENE,68,1.0,4.0,84,0.00,,,0.00,0,Wunderground v.1.15,2013-01-25 04:29:00,
2013-01-24 22:34:00,12.5,8.8,30.56,ENE,68,1.0,3.0,85,0.00,,,0.00,0,Wunderground v.1.15,2013-01-25 04:34:00,
2013-01-24 22:39:00,12.5,8.8,30.56,ENE,69,3.0,4.0,85,0.00,,,0.00,0,Wunderground v.1.15,2013-01-25 04:39:00,
2013-01-24 22:44:00,12.6,8.9,30.56,ENE,69,0.0,4.0,85,0.00,,,0.00,0,Wunderground v.1.15,2013-01-25 04:44:00,
2013-01-24 22:49:00,12.6,9.2,30.56,ENE,69,1.0,4.0,86,0.00,,,0.00,0,Wunderground v.1.15,2013-01-25 04:49:00,
2013-01-24 22:54:00,12.7,9.3,30.56,East,83,4.0,6.0,86,0.00,,,0.00,0,Wunderground v.1.15,2013-01-25 04:54:00,
2013-01-24 22:59:00,12.9,9.5,30.56,ESE,111,2.0,11.0,86,0.00,,,0.00,0,Wunderground v.1.15,2013-01-25 04:59:00,
2013-01-24 23:00:00,12.9,9.5,30.56,ESE,111,1.0,3.0,86,0.00,,,0.00,0,Wunderground v.1.15,2013-01-25 05:00:00,
2013-01-24 23:03:00,13.0,9.6,30.56,East,101,6.0,6.0,86,0.00,,,0.00,0,Wunderground v.1.15,2013-01-25 05:03:00,
2013-01-24 23:08:00,13.1,9.7,30.55,East,101,7.0,7.0,86,0.00,,,0.00,0,Wunderground v.1.15,2013-01-25 05:08:00,
2013-01-24 23:13:00,13.2,9.8,30.54,East,101,5.0,8.0,86,0.00,,,0.00,0,Wunderground v.1.15,2013-01-25 05:13:00,
2013-01-24 23:18:00,13.3,9.9,30.54,ESE,103,2.0,8.0,86,0.00,,,0.00,0,Wunderground v.1.15,2013-01-25 05:18:00,
2013-01-24 23:23:00,13.5,10.1,30.54,ESE,105,1.0,6.0,86,0.00,,,0.00,0,Wunderground v.1.15,2013-01-25 05:23:00,
2013-01-24 23:28:00,13.6,10.2,30.54,ESE,103,5.0,7.0,86,0.00,,,0.00,0,Wunderground v.1.15,2013-01-25 05:28:00,
2013-01-24 23:33:00,13.8,10.1,30.53,ESE,122,2.0,11.0,85,0.00,,,0.00,0,Wunderground v.1.15,2013-01-25 05:33:00,
2013-01-24 23:38:00,14.0,10.3,30.53,ESE,116,8.0,12.0,85,0.00,,,0.00,0,Wunderground v.1.15,2013-01-25 05:38:00,
2013-01-24 23:43:00,14.2,10.3,30.53,ESE,107,6.0,8.0,84,0.00,,,0.00,0,Wunderground v.1.15,2013-01-25 05:43:00,
2013-01-24 23:48:00,14.3,10.4,30.52,SE,126,9.0,11.0,84,0.00,,,0.00,0,Wunderground v.1.15,2013-01-25 05:48:00,
2013-01-24 23:53:00,14.4,10.4,30.52,ESE,120,9.0,9.0,84,0.00,,,0.00,0,Wunderground v.1.15,2013-01-25 05:53:00,
2013-01-24 23:58:00,14.5,10.3,30.52,ESE,107,4.0,11.0,83,0.00,,,0.00,0,Wunderground v.1.15,2013-01-25 05:58:00,